Content
SEND FEEDBACK

Daily
Averages
Monthly
Summary
Turkmenistan

ASHGABAT, TURKMENISTAN


Home > Asia > Turkmenistan
Elevation: 775 feet     Latitude: 37 58N     Longitude: 058 20E

WEATHER
 
SELECT A DAY
Number of Records: 183,734;   Date Range: 3/15/97 - 12/26/14
 
SHARE

PRINT THIS DATA

[ ← Previous Day ]
WEATHER ALMANAC - OCTOBER 15, 2013
[ Next Day → ]
[ °C ]   °F
Weather ElementAverageHighLow
Temperature62.7 °F71.6 °F (3:00 pm)53 °F (8:00 am)
Dewpoint42.5 °F50 °F (8:00 pm)35.6 °F (1:00 am)
Humidity46.1 %67 % (11:00 pm)28 % (5:00 pm)
Barometer30.24 in30.32 in (11:00 pm)30.18 in (1:00 am)
Wind Speed7.6 mph11.2 mph (5:00 pm)
Weather ElementAverage
Visibility6.1 mi
Wind DirectionWNW (282.9 °)

Weather ElementTotal
Precipitation---
Heating Degree Days2.7 (Base 65)
Growing Degree Days12.3 (Base 50)
Averaged from 31 records on October 15, 2013
WEATHER CONDITIONS BREAKOUT
WIND DIRECTION BREAKOUT
WEATHER BY HOUR - OCTOBER 15, 2013
[ °C ]   °F
Local TimeTemperatureDewpointHumidityBarometerVisibilityWind DirectionWind SpeedGust SpeedPrecipitationEventsConditions
1:00 AM62.6 °F35.6 °F37 %30.18 in6.2 miWest (280°)8.9 mphScattered Clouds
2:00 AM59.0 °F42.0 °F41 %30.19 in6.0 miWest (270°)8.9 mphPartly Cloudy
2:00 AM60.8 °F37.4 °F42 %30.18 in6.2 miWest (270°)8.9 mphScattered Clouds
3:00 AM60.8 °F39.2 °F45 %30.18 in6.2 miWSW (250°)6.7 mphScattered Clouds
4:00 AM59.0 °F41.0 °F51 %30.18 in6.2 miWest (270°)8.9 mphPartly Cloudy
5:00 AM58.0 °F39.0 °F38 %30.21 in6.0 miWNW (300°)8.9 mph
5:00 AM57.2 °F42.8 °F59 %30.21 in6.2 miWNW (300°)8.9 mphClear
6:00 AM55.4 °F42.8 °F63 %30.21 in6.2 miWNW (290°)8.9 mphPartly Cloudy
7:00 AM55.4 °F42.8 °F63 %30.21 in6.2 miWest (270°)6.7 mphScattered Clouds
8:00 AM53.0 °F43.0 °F60 %30.26 in6.0 miWSW (250°)4.5 mphScattered Clouds
8:00 AM55.4 °F41.0 °F58 %30.24 in6.2 miWSW (250°)4.5 mphMostly Cloudy
9:00 AM60.8 °F41.0 °F48 %30.27 in6.2 miWest (280°)6.7 mphMostly Cloudy
10:00 AM62.6 °F41.0 °F45 %30.27 in6.2 miNW (310°)8.9 mphMostly Cloudy
11:00 AM65.0 °F44.0 °F36 %30.28 in6.0 miNNW (330°)8.9 mphScattered Clouds
11:00 AM64.4 °F41.0 °F42 %30.27 in6.2 miNW (320°)8.9 mphMostly Cloudy
12:00 PM66.2 °F41.0 °F40 %30.27 in6.2 miNW (320°)6.7 mphMostly Cloudy
1:00 PM68.0 °F41.0 °F37 %30.24 in6.2 miNorth (10°)4.5 mphScattered Clouds
2:00 PM68.0 °F44.0 °F30 %30.25 in6.0 miNNW (330°)6.7 mphPartly Cloudy
2:00 PM69.8 °F41.0 °F35 %30.24 in6.2 miNorth (350°)4.5 mphScattered Clouds
3:00 PM71.6 °F41.0 °F33 %30.21 in6.2 miNW (310°)6.7 mphScattered Clouds
4:00 PM71.6 °F39.2 °F31 %30.21 in6.2 miWNW (300°)4.5 mphMostly Cloudy
5:00 PM69.0 °F44.0 °F28 %30.23 in6.0 miNW (320°)11.2 mphMostly Cloudy
5:00 PM69.8 °F41.0 °F35 %30.21 in6.2 miNW (320°)8.9 mphMostly Cloudy
6:00 PM68.0 °F41.0 °F37 %30.24 in6.2 miNW (310°)8.9 mphMostly Cloudy
7:00 PM66.2 °F44.6 °F46 %30.24 in6.2 miWNW (300°)8.9 mphMostly Cloudy
8:00 PM65.0 °F50.0 °F48 %30.28 in6.0 miWNW (290°)8.9 mphPartly Cloudy
8:00 PM64.4 °F46.4 °F52 %30.27 in6.2 miWNW (290°)8.9 mphScattered Clouds
9:00 PM60.8 °F46.4 °F59 %30.27 in6.2 miWNW (290°)6.7 mphPartly Cloudy
10:00 PM60.8 °F46.4 °F59 %30.30 in6.2 miWest (270°)6.7 mphPartly Cloudy
11:00 PM57.0 °F49.0 °F67 %30.32 in6.0 miWest (260°)6.7 mph
11:00 PM59.0 °F46.4 °F63 %30.30 in6.2 miWest (260°)6.7 mphClear
Hourly data recorded from UTAA, located miles away from Ashgabat, Turkmenistan







STORIES FROM OUR PARTNERS